Tracking 22130 objects as of 21-Jan-2021
HD Live streaming from Space Station
objects crossing your sky now

STARLINK-1880

Track STARLINK-1880 now!
10-day predictions
STARLINK-1880 is classified as:


NORAD ID: 47165
Int'l Code: 2020-088AV
Perigee: 447.5 km
Apogee: 449.4 km
Inclination: 53.1 °
Period: 93.4 minutes
Semi major axis: 6819 km
RCS: Unknown
Launch date: November 25, 2020
Source: United States (US)
Launch site: AIR FORCE EASTERN TEST RANGE (AFETR)
aabbcc
Your satellite tracking list
Your tracking list is empty




NASA's NSSDC Master Catalog

Two Line Element Set (TLE):
1 47165U 20088AV  21021.58335648 -.00973730  00000-0 -24936-1 0  9995
2 47165  53.0565  72.2584 0001396  76.6804 168.3179 15.41624593  1766
Source of the keplerian elements: AFSPC